sat.trackr.live / text

‹ back to catalog

GOKTURK 1A

NORAD 41875 · 2016-073A

PAYLOAD ACTIVE UNKNOWN

§ Identity

Operator
Country
TURK
Launch date
2016-12-05
Launch site
FRGUI
Launch vehicle
Mass (kg)
RCS (m²)
3.16

Purposes: earth_obs

External: N2YO · Heavens-Above · Gunter

§ Orbital elements

Epoch: 2026-09-20T04:34:09.906816Z

Period
98.44 min
Inclination
98.1526°
Eccentricity
0.0001572
Mean motion
14.62752119 rev/d
Perigee alt
683.2 km
Apogee alt
685.4 km
Semi-major
7,062.4 km
B*
6.1273e-5
RAAN
156.5048°
Arg perigee
74.1297°
Mean anomaly
286.0078°
Rev number
52,271

§ Raw data

GOKTURK 1A1 41875U 16073A   26263.19039244  .00000265  00000+0  61273-4 0  99982 41875  98.1526 156.5048 0001572  74.1297 286.0078 14.62752119522718

JSON: /api/v1/satellites/41875 · /tle

For live sub-satellite position, see the globe view (requires WebGL).

§ Visibility from observer

Set your observer location to see the next 7 days of passes ≥ 10°. The values pass through the URL so the page stays shareable.

No JS? Fill the form by hand. The geolocation button needs JavaScript.